Theta_e
305 305 308 307 308 296 301 302 297 300 302 301 296 298 297 296 291 291 294 298 296 298 300 303 305 306 307 314 323 324 325 327 329 330 331 333 334 335 337 338 338 338 339 339 340 341 341 343 344 345 346 347 347 348 348 347 348 349 349 350 348 349 349
305 308 308 308 308 303 301 298 301 303 306 303 297 287 291 290 285 288 293 293 290 294 291 301 302 302 305 307 320 324 326 326 327 330 332 333 334 335 337 338 339 339 339 340 340 342 342 343 344 345 346 348 349 349 349 348 348 348 349 350 349 349 348
305 307 306 304 308 308 304 303 305 302 292 295 294 293 287 285 286 285 290 294 293 292 293 298 299 301 302 304 314 323 324 326 327 329 331 333 334 335 336 337 338 338 339 340 340 341 343 344 346 346 348 349 350 350 350 350 348 349 350 351 351 350 349
304 305 303 296 300 307 307 306 304 303 298 297 292 295 291 291 286 289 287 292 291 297 296 299 300 302 303 304 305 322 325 326 328 329 331 332 333 334 335 336 337 339 340 340 341 341 343 344 345 347 348 349 350 350 351 350 351 350 350 351 352 350 350
303 297 300 299 301 299 300 299 299 301 301 299 298 298 293 290 287 286 287 287 291 297 302 304 304 304 304 305 305 318 325 327 328 330 331 332 333 334 335 336 337 338 340 341 341 342 343 345 347 348 348 349 350 351 351 351 350 350 350 351 351 352 351
295 297 303 305 304 304 302 299 297 301 298 293 294 289 298 295 291 285 287 288 292 302 308 306 306 307 307 306 307 312 325 327 328 330 331 332 333 334 335 336 337 338 340 341 342 342 343 344 346 347 349 350 350 350 351 351 352 351 351 351 351 352 352
296 302 305 307 308 307 305 303 299 302 300 296 293 288 291 295 293 299 294 289 293 303 308 308 308 308 308 308 308 308 324 327 329 330 331 332 333 334 334 335 337 338 339 341 341 341 341 343 345 347 349 349 350 351 351 352 351 351 352 352 352 352 353
302 305 308 308 308 306 304 304 302 301 299 300 298 295 293 294 293 292 291 291 291 301 310 308 308 309 309 309 308 307 322 327 329 329 330 332 332 333 334 336 337 338 339 340 340 340 340 341 344 346 348 350 351 351 352 352 351 352 352 353 353 352 352
293 298 300 300 304 305 302 302 303 302 303 302 298 299 296 294 294 294 289 287 291 300 311 309 309 309 309 308 308 311 321 325 327 329 330 331 332 332 333 334 335 337 338 338 339 340 340 341 343 345 347 349 350 351 352 352 352 353 353 354 353 353 352
284 286 287 288 294 296 299 304 304 303 301 300 297 294 294 289 294 295 291 289 295 301 306 305 306 306 307 307 309 314 323 324 326 328 329 330 331 331 332 333 334 335 337 339 339 339 341 342 343 344 346 348 349 351 352 353 353 353 353 354 354 353 353
287 289 292 298 300 300 298 301 303 303 302 301 300 296 291 291 292 294 295 297 296 301 303 303 305 305 305 304 309 315 320 324 326 327 328 329 330 331 332 333 334 336 336 338 339 340 341 343 344 345 346 347 349 350 351 353 354 354 354 354 353 353 353
291 293 293 296 298 296 298 300 301 303 302 300 299 296 295 296 294 288 297 299 298 299 302 303 304 306 305 306 309 316 321 323 325 326 328 336 329 331 332 333 333 334 335 337 339 340 341 344 345 346 347 348 349 349 350 352 354 355 355 355 354 353 353
291 292 293 296 298 300 301 303 302 301 302 301 298 297 298 300 296 293 298 300 299 301 304 305 306 305 307 310 317 317 321 324 325 325 327 328 328 329 330 331 332 333 334 336 338 340 342 344 346 347 347 348 349 350 351 353 354 355 356 355 354 354 353
290 292 295 300 299 302 303 302 302 302 303 302 301 300 301 302 299 300 301 302 302 304 306 306 308 310 311 317 321 319 320 323 324 324 327 328 328 329 329 330 331 332 334 336 338 340 342 344 347 348 348 349 350 350 351 352 354 356 357 356 355 354 353
288 293 298 298 298 301 301 301 302 302 302 302 302 301 301 304 302 302 305 303 303 305 308 309 313 315 316 318 320 320 321 324 325 324 326 328 328 329 329 329 330 331 334 336 338 339 341 344 347 349 350 350 351 351 352 352 353 356 357 357 356 355 355
286 293 294 295 298 301 300 300 302 302 301 299 301 301 301 301 301 305 305 302 301 306 311 312 311 312 312 311 311 315 320 324 326 324 325 327 327 328 329 329 330 331 335 337 339 340 341 344 347 350 351 351 351 351 352 352 354 356 358 358 357 357 357
284 291 293 293 298 298 296 298 301 303 303 303 310 312 307 306 303 303 301 302 305 308 312 311 310 311 310 310 312 315 318 322 325 325 325 326 327 328 328 329 332 334 337 339 342 343 344 345 347 350 353 352 352 352 353 353 355 356 357 358 358 357 358
284 289 291 298 296 288 291 302 305 305 308 310 308 309 311 313 314 300 305 308 309 309 310 309 309 311 312 315 321 317 319 322 326 330 331 331 331 329 329 331 333 335 338 341 344 347 348 349 350 351 354 354 354 355 355 355 354 355 356 357 358 358 358
283 288 292 294 288 291 302 306 308 309 308 314 312 312 313 314 315 316 312 310 309 309 311 317 322 327 332 336 337 339 337 328 328 331 333 334 336 336 336 336 337 339 342 344 346 347 349 351 351 352 353 355 355 355 355 355 355 354 355 356 357 358 358
288 289 289 285 290 302 305 305 306 309 309 307 313 310 313 314 315 316 313 311 311 312 319 327 334 336 337 338 339 338 339 341 340 339 339 341 344 344 344 342 343 346 348 349 350 349 352 354 352 352 353 355 355 355 356 356 356 355 355 355 356 357 358
284 286 285 289 300 301 302 302 302 303 302 303 308 304 308 314 315 316 314 315 311 318 327 333 335 337 337 334 335 340 338 338 341 341 340 340 340 341 343 346 346 348 349 349 351 353 351 352 352 353 354 355 355 355 355 356 356 356 355 355 355 357 358
289 283 284 288 290 288 295 302 306 308 309 309 311 311 308 315 315 317 316 315 317 317 320 328 331 334 331 327 330 337 339 339 339 341 343 345 345 345 345 346 348 350 351 351 349 344 345 347 350 352 351 354 354 354 354 355 355 355 355 355 355 356 357
285 283 283 284 285 292 301 301 305 307 309 311 311 309 305 313 314 317 317 317 318 319 320 321 328 327 322 323 329 336 338 338 339 337 338 340 342 344 345 345 346 348 351 354 354 354 353 352 352 347 350 349 351 352 353 354 354 354 354 355 355 355 357
285 285 283 282 292 288 300 303 305 308 311 313 309 299 300 312 314 316 316 317 319 319 320 323 323 324 321 324 331 338 338 338 338 338 337 338 339 341 344 345 345 347 350 350 350 351 351 352 353 354 351 351 350 348 350 350 352 353 354 355 356 356 358
286 287 285 290 294 303 304 305 307 308 313 313 301 293 305 312 314 315 315 317 320 321 321 322 319 322 327 332 337 339 338 338 338 339 340 340 340 340 343 346 351 345 348 349 349 350 349 350 352 356 355 353 349 353 350 348 349 351 353 354 354 354 356
283 285 284 286 296 303 306 308 309 311 309 298 297 310 315 315 313 314 314 316 319 321 322 323 324 326 330 332 334 335 336 336 337 338 340 341 343 345 346 351 349 344 346 347 346 350 351 352 353 353 352 352 350 348 349 349 350 351 350 351 353 352 354
290 290 285 286 283 298 306 308 310 309 302 304 311 317 315 313 312 312 312 314 317 320 321 324 324 326 327 329 330 331 333 335 336 337 339 340 341 342 344 345 349 347 344 345 345 345 351 350 351 352 353 350 349 349 347 351 354 354 351 352 353 353 353
285 286 286 289 299 300 308 306 300 307 311 316 316 315 312 313 312 311 311 312 315 317 319 322 323 324 324 326 328 329 331 334 336 338 339 341 342 343 345 347 347 347 345 346 347 347 348 350 351 354 353 352 352 351 350 353 354 356 354 352 353 353 353
292 291 294 300 300 302 309 309 310 312 314 315 315 315 315 314 313 314 311 311 313 314 316 319 321 322 324 324 326 327 328 332 334 335 337 340 341 342 343 345 348 346 345 345 346 346 347 348 349 352 352 350 352 350 352 356 357 356 356 353 352 352 352
300 300 302 303 305 303 308 311 310 313 315 317 317 315 314 315 316 315 313 312 312 312 313 314 317 319 321 323 324 326 327 329 332 335 336 338 341 342 343 344 346 344 344 345 345 345 345 346 348 353 351 351 350 352 355 358 359 356 357 354 352 352 352
291 287 298 298 299 302 304 306 311 313 312 315 318 316 315 314 315 315 316 314 312 312 311 311 314 317 319 320 323 325 327 328 330 332 333 335 338 339 340 344 345 342 343 343 343 343 343 344 346 349 349 350 352 354 358 360 361 354 355 355 354 352 352
292 292 296 298 301 306 305 304 305 307 311 312 314 316 316 314 312 314 316 317 313 312 311 311 313 315 316 317 320 324 325 327 329 330 332 333 336 338 340 342 343 341 342 340 341 340 341 342 343 345 346 347 350 352 355 359 361 357 356 353 353 352 353
294 297 298 300 299 305 302 305 305 308 309 309 311 312 312 313 314 312 312 317 316 312 311 312 313 314 315 316 318 323 325 326 327 328 330 332 334 337 339 340 343 340 341 341 339 338 340 340 341 342 344 346 349 350 352 355 358 353 354 355 354 353 353
288 290 294 297 292 292 297 302 303 304 307 307 311 311 311 310 312 314 315 316 314 314 313 313 315 315 315 317 318 321 324 325 325 326 329 330 332 334 337 340 339 339 341 340 338 338 338 339 340 341 342 345 348 350 352 354 356 351 353 352 351 353 354
288 294 297 299 299 298 299 300 301 302 304 305 306 307 311 311 313 315 314 311 311 312 313 314 314 315 317 319 320 321 323 324 326 328 328 330 332 334 337 339 339 338 338 341 340 338 338 339 340 341 342 344 345 347 350 353 354 352 350 350 350 351 353
294 297 297 298 297 295 297 300 301 301 303 303 306 309 310 310 312 310 310 310 310 312 312 312 314 314 316 320 323 322 323 325 326 329 330 330 332 333 334 337 338 338 338 338 337 336 337 339 339 339 341 343 344 345 347 349 349 347 347 347 344 344 347
293 298 298 298 298 299 300 300 301 302 304 305 305 309 308 310 310 313 311 311 312 313 312 312 313 315 316 320 323 324 324 326 330 334 333 333 333 332 332 334 337 337 337 337 336 336 337 337 338 340 341 342 343 343 344 346 346 344 344 345 345 345 348
Wind_Speed
14 12 9 11 12 11 10 9 14 13 7 7 2 3 1 4 3 11 2 2 4 5 3 6 2 4 5 10 18 18 17 19 19 18 18 19 19 19 19 18 18 20 19 19 18 19 18 18 18 19 20 20 21 20 19 20 19 18 19 19 19 17 16
16 18 11 12 14 7 7 12 12 5 4 3 6 6 1 4 5 5 2 10 1 4 9 5 6 5 8 8 16 20 22 20 17 18 18 19 19 19 21 21 20 21 21 22 19 18 19 20 21 21 21 20 19 19 20 21 19 20 18 18 18 16 16
12 15 15 12 14 13 13 14 9 11 7 13 5 3 5 5 6 2 3 4 6 7 7 2 7 9 9 8 13 18 20 19 20 19 20 20 21 19 18 18 16 16 17 19 20 20 20 20 21 21 20 19 17 17 18 20 21 21 20 17 16 14 15
5 7 11 15 12 14 11 7 12 8 5 7 6 7 4 6 3 4 5 2 8 5 5 7 10 10 14 12 8 18 21 22 20 19 20 19 18 18 18 18 18 19 20 21 22 21 20 20 19 17 17 16 19 19 19 19 18 17 16 16 15 15 15
9 7 8 14 15 12 11 9 9 10 4 1 5 1 4 5 4 5 4 5 6 7 8 14 18 15 13 14 13 14 19 22 23 23 21 19 20 19 18 18 19 19 20 20 20 19 19 18 17 17 18 20 19 18 18 19 19 19 19 18 17 15 15
5 7 6 15 15 13 10 9 9 12 11 6 13 8 1 4 3 3 4 8 7 10 10 13 17 16 15 15 16 13 20 23 23 21 22 21 20 20 20 18 17 17 18 18 18 17 14 15 16 17 17 17 17 18 18 18 18 18 19 18 17 17 15
9 13 15 8 13 13 9 10 8 11 8 6 7 9 8 7 5 3 5 3 8 9 9 13 16 16 16 18 15 12 16 20 22 22 22 21 22 21 20 18 17 18 18 18 18 19 19 19 18 18 17 17 18 19 18 17 19 20 19 19 18 16 15
13 18 15 15 12 11 13 9 6 9 12 12 11 9 5 7 5 8 3 4 7 9 4 9 14 18 19 16 15 15 16 17 20 21 21 21 19 20 20 19 18 17 16 15 15 16 17 16 16 17 17 17 18 17 18 17 20 20 18 16 15 15 14
7 8 5 5 3 7 9 9 10 11 12 13 4 6 4 7 10 9 5 7 7 8 4 5 9 17 16 15 9 14 16 17 19 21 21 19 18 18 17 16 15 14 14 15 16 17 17 17 17 17 18 17 16 17 17 17 17 17 16 14 15 15 15
2 7 7 2 7 7 7 9 15 14 15 13 7 7 4 8 5 7 6 5 9 11 8 8 4 10 12 9 10 13 18 20 20 18 18 17 17 17 17 17 15 16 17 17 17 17 16 17 17 17 17 17 17 16 17 16 15 15 16 15 16 16 16
8 11 12 15 11 10 4 11 15 16 11 11 9 6 6 10 5 8 9 7 8 7 6 8 1 6 9 9 10 12 15 19 21 19 17 14 16 17 19 18 17 16 15 18 19 19 18 18 17 17 17 17 16 15 16 16 16 16 16 15 15 16 16
13 15 18 20 15 16 19 16 16 16 16 12 13 10 10 6 9 9 6 7 11 7 7 8 3 4 5 8 9 12 14 17 19 19 18 19 17 17 17 17 18 19 19 19 19 19 18 17 17 16 16 16 16 16 16 16 15 15 14 15 16 16 16
19 18 17 18 15 14 14 15 13 17 18 16 13 10 7 10 9 9 8 7 9 8 8 8 6 6 10 11 11 14 16 17 16 17 19 19 18 17 18 18 18 19 18 17 18 18 18 17 18 17 16 15 14 14 14 15 15 16 15 15 16 16 16
20 18 14 11 11 9 10 11 8 9 19 18 17 10 6 11 6 10 10 9 15 9 8 9 7 4 2 3 4 8 12 14 15 17 17 19 18 18 18 17 18 18 19 18 18 18 17 17 17 16 15 15 16 16 15 15 15 15 15 16 16 16 16
15 14 10 13 11 11 9 9 8 6 13 15 12 9 9 5 4 5 7 9 10 6 2 2 1 4 5 5 6 11 14 14 16 18 19 20 19 18 18 16 15 13 14 16 16 16 16 17 17 16 16 16 15 16 15 15 15 14 14 14 15 15 16
11 10 13 19 16 14 9 5 5 8 4 11 9 9 6 4 5 2 5 5 7 2 3 5 5 7 8 6 5 5 9 15 17 18 18 18 19 19 18 17 14 12 12 14 16 18 18 17 17 15 15 15 15 16 16 16 14 13 14 14 15 15 15
8 10 14 15 15 9 4 6 8 4 4 4 11 16 6 1 3 7 5 9 5 5 4 11 5 9 7 6 3 7 5 8 14 16 13 14 15 16 15 14 14 14 14 15 17 17 16 17 16 16 16 15 16 15 14 13 12 13 15 15 14 14 14
9 17 18 14 3 1 3 2 15 14 8 15 20 9 8 12 10 2 6 7 3 5 10 14 9 11 5 5 5 3 8 9 7 6 8 11 11 12 12 14 15 14 13 12 13 15 16 16 17 16 15 16 15 15 14 13 15 14 14 14 14 15 14
7 12 13 3 3 8 6 11 11 15 4 19 17 20 24 22 23 21 13 5 6 3 11 16 15 13 11 13 15 13 9 12 12 12 10 6 5 5 6 7 7 8 8 8 7 6 7 9 8 9 10 11 9 9 11 12 13 14 14 14 14 14 15
6 4 3 4 10 6 12 8 12 21 16 14 11 22 21 19 18 14 12 6 7 5 14 13 14 18 17 19 17 14 14 13 14 15 12 10 11 11 7 8 5 5 6 7 7 6 4 6 6 8 9 8 9 11 11 12 12 13 13 14 14 14 14
2 5 5 7 8 7 8 10 17 16 9 12 5 13 12 15 16 18 13 14 8 5 12 13 14 17 20 19 14 13 13 15 15 16 13 13 12 12 11 11 10 8 7 7 5 5 6 7 8 8 7 8 9 9 9 10 11 11 12 14 14 14 14
2 5 8 5 5 2 6 8 16 16 14 13 13 4 9 17 20 17 16 11 10 10 3 6 10 21 22 15 10 9 10 12 16 15 14 14 13 12 11 10 11 9 8 9 9 9 9 8 5 3 5 8 10 10 11 10 11 12 13 14 14 13 13
8 4 2 3 1 5 5 18 18 21 20 16 10 1 12 12 17 17 16 14 12 11 11 10 6 20 15 9 6 6 8 11 13 15 14 13 12 12 11 11 11 10 8 8 8 9 10 9 5 4 4 5 6 9 10 11 11 12 13 13 13 13 12
5 4 3 3 3 2 13 19 18 22 21 17 2 7 5 11 14 14 14 13 14 14 10 10 18 12 14 8 7 5 9 10 12 13 13 13 12 12 11 11 9 9 9 11 13 12 10 7 4 6 4 4 4 5 4 5 10 13 14 14 13 11 11
6 6 4 3 4 3 12 15 19 21 15 5 12 7 3 7 11 12 12 13 13 13 14 13 16 11 9 8 9 8 8 12 14 13 12 11 10 10 11 11 10 10 9 8 8 7 5 5 6 5 6 6 3 0 4 5 8 9 6 6 7 8 8
4 3 4 6 1 5 12 17 15 18 5 9 8 2 4 5 8 10 11 13 13 12 15 13 12 11 12 12 10 11 12 11 10 11 11 12 13 12 10 12 11 10 9 9 9 9 7 7 5 4 4 4 3 2 1 4 5 3 3 5 5 7 9
1 1 4 2 4 6 14 16 6 18 10 4 4 2 7 7 8 9 11 12 14 12 12 13 13 13 13 13 12 11 10 10 11 10 12 13 12 11 12 12 11 9 8 8 7 6 6 7 7 6 5 4 2 2 2 5 5 4 5 5 8 7 8
2 3 1 3 2 5 6 12 6 5 6 4 6 5 8 9 9 9 8 11 12 13 12 12 12 12 12 12 11 11 12 10 9 9 10 10 10 9 9 8 7 8 7 7 7 6 7 7 6 6 6 7 5 4 5 5 5 4 4 5 7 8 8
1 3 2 6 9 7 2 5 3 2 7 7 5 9 7 8 9 9 8 10 11 12 12 11 12 12 11 9 8 9 8 9 10 10 9 9 9 9 8 8 6 6 6 6 6 6 6 7 7 6 6 6 7 8 8 6 6 5 5 5 7 8 8
4 7 4 4 5 6 5 3 7 7 6 7 7 6 6 6 7 9 9 9 10 11 11 11 11 11 9 10 9 9 7 7 6 7 8 8 8 8 8 9 9 7 7 7 8 8 8 8 8 7 7 7 8 8 8 7 6 4 5 5 7 8 8
3 3 5 11 10 8 8 10 8 8 8 4 4 5 6 8 8 9 11 9 9 9 11 11 10 10 11 11 10 8 8 9 7 7 8 7 7 7 8 7 6 7 6 7 7 7 8 7 7 7 7 7 6 6 8 8 8 3 3 5 6 6 7
2 3 9 9 10 2 7 5 6 6 6 6 7 5 4 7 6 6 5 8 8 8 10 9 9 11 11 11 11 10 9 9 9 8 8 9 8 7 6 6 7 6 6 6 7 6 6 6 6 6 6 7 7 7 7 8 8 3 2 3 4 4 5
4 8 6 10 15 2 9 8 8 5 4 5 7 10 9 6 7 6 5 4 5 7 7 6 6 8 10 10 9 9 8 8 9 9 8 7 7 7 8 7 7 6 5 6 5 4 5 4 5 4 5 6 6 7 6 6 7 5 0 2 4 4 4
5 3 6 10 8 7 10 8 13 12 8 4 2 3 7 10 7 4 5 3 4 4 5 5 5 5 5 7 7 7 6 7 7 7 6 5 6 6 5 5 6 6 5 5 4 4 4 5 5 5 5 5 6 6 6 5 5 4 0 1 3 5 6
9 10 13 8 4 9 8 8 11 13 14 11 7 6 2 5 8 5 7 7 3 4 5 4 4 4 4 5 4 5 6 6 7 6 4 6 8 9 10 9 9 7 5 4 4 4 4 5 5 6 6 5 6 6 6 5 4 3 1 2 1 1 4
16 14 13 9 6 9 12 10 9 10 11 13 11 7 5 1 3 7 7 7 7 4 2 3 3 4 4 4 3 4 4 5 6 7 7 6 8 9 10 9 8 8 7 6 4 4 4 4 4 5 6 6 6 7 6 5 3 2 1 3 3 2 3
15 11 12 11 9 12 12 11 10 7 8 13 11 5 3 1 4 3 4 5 5 6 7 6 6 6 5 6 4 6 7 7 9 10 10 10 11 10 9 8 8 6 6 4 3 3 3 3 4 3 3 5 5 6 5 5 3 2 2 4 5 3 4
Wind_Direction
221 220 194 202 166 200 188 185 208 213 119 172 205 310 247 107 111 240 196 278 284 301 324 243 211 292 213 168 174 184 192 194 186 186 188 187 186 184 184 188 188 186 186 185 185 185 184 182 181 183 182 181 181 180 182 185 185 183 185 186 188 190 190
217 217 213 206 196 147 152 202 209 115 140 125 173 203 281 173 178 248 261 232 300 156 251 290 248 191 245 162 182 182 186 187 184 190 187 189 187 186 188 188 187 186 185 185 186 186 186 184 184 185 184 183 182 181 182 184 184 186 188 187 189 188 188
218 207 209 231 217 183 191 204 134 176 151 208 194 140 215 183 208 238 295 239 247 181 243 275 226 219 228 224 182 183 186 183 185 188 191 191 189 186 185 186 186 187 187 188 187 187 187 187 187 186 183 179 180 183 183 184 187 189 188 188 188 189 188
252 214 188 214 218 210 205 129 178 162 153 202 161 199 157 134 227 171 289 204 237 211 211 206 238 213 214 225 185 185 182 186 184 187 189 190 190 189 186 187 187 187 189 188 188 187 186 188 185 183 180 180 182 183 182 188 189 186 186 188 187 189 191
321 238 190 208 208 198 192 175 184 184 206 178 132 253 172 164 172 189 177 234 266 249 215 217 224 223 217 204 207 176 185 186 185 186 187 188 189 189 190 189 188 187 189 190 189 188 190 187 182 180 181 183 185 182 185 185 184 186 189 191 188 191 187
291 274 239 210 207 208 202 181 189 190 171 133 190 245 182 176 116 197 166 238 259 245 219 214 221 222 217 214 209 176 186 185 184 186 188 187 186 189 188 190 186 186 189 188 188 187 185 185 186 184 184 184 181 185 187 185 186 188 190 190 192 191 191
269 272 279 297 220 208 213 167 202 192 175 148 168 204 216 196 219 167 162 168 265 240 205 205 220 222 213 215 204 179 184 182 183 187 189 189 186 185 188 185 183 187 186 185 184 183 185 188 187 186 183 183 186 188 185 186 187 191 189 191 192 191 192
259 256 262 272 279 224 211 205 170 180 194 187 194 187 177 183 193 230 266 242 254 280 206 200 217 218 215 212 199 175 176 177 183 188 191 190 185 188 186 183 183 184 183 180 179 187 188 187 185 187 186 189 190 187 188 188 192 190 189 190 189 191 192
305 298 347 334 291 227 212 199 199 194 199 194 156 119 143 182 209 198 166 227 269 274 292 280 209 226 217 207 183 163 164 174 183 188 191 190 183 183 183 178 177 176 173 177 185 187 188 187 188 187 189 191 189 189 189 190 192 189 188 186 188 191 191
275 218 209 197 357 343 321 221 204 198 191 186 137 185 172 197 242 195 204 244 254 275 312 324 257 192 197 184 162 169 164 172 182 189 191 184 175 179 177 175 172 173 177 183 185 186 187 189 188 189 191 190 191 191 191 189 186 186 188 186 189 190 192
277 288 289 284 299 281 271 293 228 200 185 179 181 120 143 192 205 190 225 204 260 290 301 311 295 156 163 146 147 161 169 173 178 180 183 180 175 176 175 174 175 176 178 183 186 185 187 187 188 190 191 190 191 191 189 188 188 187 186 186 187 190 192
284 287 280 283 283 267 275 276 271 210 185 177 185 178 202 170 123 218 242 209 230 246 270 280 266 151 151 141 150 161 166 171 176 178 179 178 177 175 174 176 176 179 183 183 182 184 184 186 187 189 189 189 190 190 190 189 187 186 187 186 187 190 192
303 286 276 270 258 256 260 266 274 219 190 184 185 201 194 151 176 198 231 203 216 235 241 247 248 197 164 162 156 166 169 171 176 176 176 177 177 175 175 178 180 184 184 183 181 181 184 182 183 186 186 186 188 190 189 189 188 189 185 185 189 191 192
301 291 288 309 314 303 272 257 282 245 197 196 192 191 167 189 180 198 202 188 216 213 226 227 240 224 159 129 133 143 150 168 171 171 174 178 177 176 179 183 185 186 186 182 181 181 182 182 181 181 182 185 188 188 190 189 191 188 182 188 189 191 194
298 288 303 329 322 311 292 291 360 333 209 201 197 182 195 191 254 195 176 172 229 254 259 212 194 114 74 76 115 156 162 159 168 173 175 176 178 178 181 184 188 190 185 182 181 181 183 184 182 180 183 185 186 187 188 189 190 187 183 187 189 191 196
301 298 340 329 323 310 298 314 19 12 167 197 202 197 176 158 213 183 124 172 236 290 73 87 62 73 85 94 97 122 169 168 168 174 177 177 178 180 181 181 180 177 181 183 184 186 188 187 183 180 181 183 185 190 188 189 188 182 185 187 190 193 196
265 286 320 318 313 319 360 3 3 335 343 53 55 30 3 230 180 139 168 216 219 162 162 98 66 85 84 67 69 116 112 169 173 169 166 169 176 179 175 174 174 176 180 185 188 189 188 187 186 187 181 181 189 190 187 186 179 185 188 189 190 194 195
288 306 318 313 320 103 161 259 14 355 67 79 65 44 15 10 21 225 231 185 176 156 117 104 104 75 41 73 22 14 120 115 107 115 144 159 167 169 173 172 174 179 180 184 190 189 186 186 187 185 181 185 190 186 182 178 183 187 187 190 190 193 195
289 306 314 86 266 203 332 345 34 7 16 79 83 56 35 19 3 345 336 111 139 152 103 107 103 100 88 59 51 43 49 82 86 76 59 60 89 109 138 153 162 166 171 169 162 167 181 185 182 175 185 190 178 174 176 181 186 186 190 191 191 193 195
288 306 346 175 218 286 316 311 18 359 8 356 38 45 30 14 6 346 3 336 114 116 111 106 101 94 84 65 50 42 51 64 79 77 68 63 68 74 69 87 75 101 130 147 155 161 141 133 149 168 179 169 164 180 178 182 185 190 191 193 195 194 196
248 320 285 252 331 329 341 1 357 353 331 323 346 84 22 9 5 7 3 7 23 101 103 109 104 93 74 66 46 30 43 63 69 76 75 70 69 71 67 70 74 67 68 75 95 112 122 146 157 167 160 159 167 167 176 186 186 191 193 199 200 197 197
27 359 328 344 44 298 298 342 320 314 304 300 278 12 48 6 2 359 7 13 20 353 36 95 108 84 74 59 46 18 30 51 68 66 65 62 59 58 64 65 64 57 59 64 59 76 84 70 53 78 152 165 167 173 185 188 189 195 198 204 203 198 198
326 340 331 297 306 254 11 333 318 309 317 310 289 135 53 7 356 359 357 6 16 27 6 304 86 84 80 85 62 16 38 48 56 66 57 55 52 51 54 58 59 49 52 64 68 63 58 50 25 43 83 136 155 181 186 190 194 197 203 206 204 202 197
260 310 327 295 254 306 333 322 319 316 317 310 227 76 37 335 344 355 357 9 20 30 7 47 52 74 104 95 80 56 49 58 57 61 61 54 47 44 40 40 44 48 42 44 44 46 46 36 32 40 53 94 144 185 201 190 196 202 207 206 204 200 191
256 251 255 296 323 346 335 315 311 317 307 334 67 83 33 319 341 355 357 11 24 33 40 39 74 45 71 89 89 70 57 57 54 51 53 56 53 50 44 40 35 38 36 49 55 54 51 44 35 34 38 49 47 128 181 185 216 223 223 206 192 187 180
264 301 287 247 161 41 339 324 312 325 5 49 87 65 309 324 356 359 5 22 22 31 46 50 56 56 52 57 61 62 57 59 59 55 51 50 47 44 43 41 41 39 32 24 23 25 21 26 29 38 43 43 35 348 289 231 240 215 170 183 194 182 179
175 198 282 359 358 348 355 333 355 7 50 21 340 44 3 355 6 9 15 23 27 25 46 47 52 48 45 44 43 46 47 52 54 53 53 51 49 42 36 33 31 37 29 19 15 8 5 18 11 4 23 34 9 336 292 265 257 230 210 186 180 189 190
277 186 169 79 328 300 2 38 44 335 24 334 1 19 26 2 7 9 15 22 26 26 37 36 43 43 44 37 33 39 40 40 41 46 53 57 55 51 46 47 41 38 36 27 27 30 23 21 21 23 24 7 352 336 299 282 272 254 217 191 182 184 190
44 290 336 297 298 294 315 96 145 88 19 3 29 50 39 8 1 352 19 19 20 29 26 35 34 36 28 33 32 42 35 39 38 39 39 44 49 50 48 38 39 50 52 52 47 41 30 22 20 21 27 17 360 351 325 315 284 255 223 190 179 188 192
283 276 211 294 312 320 352 37 54 90 60 13 354 56 65 34 15 2 0 2 20 22 26 31 27 29 16 15 14 26 32 38 42 45 41 35 35 37 37 34 32 32 33 44 42 33 23 19 17 16 14 22 1 333 321 325 316 260 206 190 191 193 190
22 304 356 341 313 321 35 65 55 40 57 24 326 18 52 54 30 10 353 348 12 19 24 27 21 16 10 10 6 8 17 24 28 36 43 40 37 37 37 35 39 31 35 42 40 34 23 9 11 8 8 3 346 334 335 327 329 305 196 187 192 189 187
239 279 318 309 324 345 65 78 69 46 32 13 4 356 51 75 37 30 359 333 4 9 24 17 22 7 1 6 0 4 9 8 12 19 25 26 26 21 25 27 34 38 46 49 38 33 24 2 358 7 3 350 336 335 333 331 330 318 151 165 177 188 185
304 294 281 356 344 333 17 24 52 90 55 48 40 359 344 9 56 38 8 13 0 5 16 15 26 16 355 353 353 359 357 3 4 5 12 18 16 11 16 13 27 35 46 45 32 19 5 350 354 2 356 336 332 331 327 324 329 329 44 185 173 182 176
305 303 330 2 341 319 335 2 355 352 354 17 62 90 1 335 345 23 59 34 354 3 9 13 24 27 353 344 352 353 348 352 349 354 6 11 19 13 4 11 23 28 33 32 20 2 342 350 348 341 340 333 328 324 321 321 325 311 334 163 185 186 178
288 297 301 306 286 283 285 311 327 333 327 334 346 339 30 332 329 4 22 14 8 22 359 356 9 6 3 344 351 351 346 343 335 337 11 16 13 14 9 10 9 11 15 24 27 4 346 350 345 333 335 331 327 326 319 324 321 302 122 97 91 175 174
276 275 277 283 286 280 289 297 310 313 313 312 311 316 306 208 20 353 11 354 344 344 355 338 346 340 343 338 1 358 339 338 340 341 350 16 21 13 11 2 352 353 353 359 2 340 330 338 334 337 335 332 337 320 323 327 348 344 85 109 102 77 93
275 287 288 287 285 279 279 288 290 290 295 294 284 272 303 81 106 58 335 334 323 336 341 345 340 346 346 342 357 5 351 345 346 351 358 9 10 12 356 347 333 334 334 331 331 324 325 327 334 327 321 324 333 332 336 342 360 46 81 111 114 105 106